KOMPSAT-7 (66820 NORAD) Tracking and Keplerian Element Data

This shows tracking and keplerian element data for the satellite.

Feedback or suggestion? Click here.




ElementValue
Catalog66820
NameKOMPSAT-7
Epoch Orbit199
Epoch Day349.01202829
Epoch Year2025
RAAN294.8339
Inclination97.641
Eccentricity0.0009394
Argument of Perigee252.0315
Mean Anonmoly107.9885
Mean Motion15.0015594
Decay Rate3.163E-05
L11 66820U 25279A 25349.01202829 .00003163 00000+0 25789-3 0 9990
L22 66820 97.6410 294.8339 0009394 252.0315 107.9885 15.00155940 1999



Live tracking and technical data element details for KOMPSAT-7 (NORAD 66820). KOMPSAT-7 can be tracked NOW for your location showing map with azimuth and elevation plus other details from your city location.







IsCatalogInMostPopularTable: catalog: 66820, numindb: 19
Update: records affected: 1



GetName: 66820 KOMPSAT-7

Hit Count: updated at: Tue, 21 Apr 2026 19:57:20 GMT